Date,TemperatureHighF,TemperatureAvgF,TemperatureLowF,DewpointHighF,DewpointAvgF,DewpointLowF,HumidityHigh,HumidityAvg,HumidityLow,PressureMaxIn,PressureMinIn,WindSpeedMaxMPH,WindSpeedAvgMPH,GustSpeedMaxMPH,PrecipitationSumIn
2013-1-1,53,49,43,50,45,35,94,85,63,30.10,29.91,2,0,2,0.95
2013-1-2,51,45,40,49,41,36,94,85,75,30.14,29.91,8,1,8,0.09
2013-1-3,47,40,33,37,33,27,88,78,58,30.29,30.10,7,1,7,0.00
2013-1-4,51,37,27,32,25,21,87,65,33,30.35,30.25,8,0,8,0.01
2013-1-5,50,39,27,37,29,22,84,69,48,30.35,30.22,2,0,2,0.01
2013-1-6,52,44,35,42,37,31,87,77,64,30.25,30.11,7,0,7,0.00
2013-1-7,58,44,31,37,32,27,87,65,39,30.34,30.22,5,0,5,0.00
2013-1-8,55,48,38,42,37,30,75,67,56,30.37,30.26,4,0,4,0.00
2013-1-9,68,59,50,58,50,41,79,73,68,30.39,30.30,3,0,3,0.00
2013-1-10,68,62,56,61,56,50,90,80,71,30.37,30.18,5,1,5,0.02
2013-1-11,71,64,60,65,61,58,94,91,80,30.19,30.09,6,1,6,0.25
2013-1-12,75,64,59,67,60,55,95,86,65,30.15,30.02,6,0,6,0.01
2013-1-13,74,67,62,64,61,57,91,81,68,30.10,29.98,8,1,8,0.05
2013-1-14,65,57,48,63,54,45,93,92,86,30.13,30.00,5,0,5,0.79
2013-1-15,58,52,48,56,51,46,95,94,93,30.10,29.92,2,0,2,0.68
2013-1-16,64,58,53,63,56,51,96,94,90,29.99,29.87,4,0,4,0.69
2013-1-17,53,46,37,51,44,33,95,93,86,30.22,29.73,9,1,9,0.76
2013-1-18,54,40,30,38,31,27,92,73,40,30.45,30.22,4,0,4,0.00
2013-1-19,56,39,28,38,30,25,93,73,40,30.41,30.18,4,0,4,0.00
2013-1-20,62,44,29,43,34,26,92,71,44,30.19,30.07,6,0,6,0.00
2013-1-21,58,43,30,40,30,20,93,64,42,30.14,30.05,8,1,8,0.01
2013-1-22,43,36,29,20,17,13,58,47,33,30.29,30.13,7,1,7,0.00
2013-1-23,55,41,26,38,26,16,72,57,38,30.35,30.13,5,0,5,0.00
2013-1-24,55,47,34,42,30,15,75,53,29,30.32,30.10,7,1,7,0.00
2013-1-25,46,39,33,30,22,14,63,50,42,30.34,30.09,5,1,5,0.00
2013-1-26,59,44,38,36,30,23,87,61,27,30.25,30.09,6,1,6,0.00
2013-1-27,55,46,38,37,33,28,73,61,48,30.41,30.24,5,0,5,0.00
2013-1-28,58,49,42,47,39,31,84,69,61,30.37,30.23,4,0,4,0.00
2013-1-29,76,60,44,61,52,40,87,78,59,30.24,29.93,6,0,6,0.00
2013-1-30,72,62,41,65,58,36,92,86,78,29.93,29.49,11,2,11,2.08
2013-1-31,49,41,33,36,28,25,82,63,41,30.13,29.81,8,1,11,0.00
2013-2-1,42,36,26,31,19,8,73,50,27,30.32,30.08,11,1,11,0.00
2013-2-2,56,38,22,37,24,15,86,63,29,30.32,30.06,5,0,5,0.21
2013-2-3,58,44,32,43,31,25,91,65,31,30.10,29.96,9,1,9,0.00
2013-2-4,54,41,30,35,30,23,79,64,44,30.09,29.96,3,0,4,0.00
2013-2-5,63,48,33,51,40,28,88,76,59,30.01,29.91,5,0,5,0.00
2013-2-6,68,52,41,51,40,33,93,66,31,30.14,30.00,5,0,5,0.00
2013-2-7,49,46,42,45,41,33,93,85,65,30.10,29.87,4,0,4,0.31
2013-2-8,55,49,38,51,44,31,92,84,62,30.15,29.89,7,1,7,0.02
2013-2-9,63,45,29,41,32,26,92,64,30,30.26,30.11,4,0,4,0.01
2013-2-10,62,51,41,51,41,30,94,70,46,30.26,29.98,8,1,8,1.28
2013-2-11,59,53,48,57,51,46,95,93,91,30.10,29.98,3,0,3,0.84
2013-2-12,55,48,44,47,45,41,94,87,67,30.08,29.80,3,0,3,0.38
2013-2-13,55,46,38,50,43,34,95,86,73,29.94,29.70,6,1,6,0.05
2013-2-14,58,45,36,40,35,31,85,68,43,30.05,29.93,6,1,6,0.00
2013-2-15,67,47,30,45,34,27,92,66,36,30.08,29.94,8,1,8,0.00
2013-2-16,46,39,30,35,23,12,73,53,31,30.11,29.93,11,2,11,0.00
2013-2-17,47,34,21,19,16,10,75,50,25,30.24,30.10,9,1,9,0.00
2013-2-18,61,40,24,34,25,18,85,59,30,30.30,30.13,8,1,8,0.00
2013-2-19,66,51,39,52,29,19,69,43,33,30.12,29.98,0,0,0,0.00
2013-2-20,54,42,28,23,17,11,66,39,21,30.16,30.05,7,0,7,0.00
2013-2-21,68,51,31,38,24,16,60,38,22,30.13,29.89,5,1,5,0.01
2013-2-22,50,44,42,43,41,40,94,91,72,30.10,29.98,5,1,5,1.12
2013-2-23,52,47,42,49,45,40,95,92,87,30.00,29.81,4,0,4,1.18
2013-2-24,66,50,37,46,37,31,94,65,30,30.00,29.87,6,1,6,0.00
2013-2-25,51,46,38,40,35,31,90,67,48,30.00,29.80,9,1,9,0.00
2013-2-26,54,44,38,48,40,36,94,87,72,29.82,29.52,6,1,6,0.00
2013-2-27,62,50,42,40,36,34,74,59,38,29.86,29.75,8,1,8,0.00
2013-2-28,52,43,34,36,30,26,82,62,46,29.96,29.82,8,2,8,0.00
2013-3-1,44,40,37,30,28,25,72,62,55,29.97,29.90,8,1,8,0.00
2013-3-2,38,36,34,31,30,29,82,78,71,29.95,29.90,7,1,7,0.00
2013-3-3,44,35,27,26,21,18,78,58,41,30.05,29.97,10,1,10,0.00
2013-3-4,54,32,24,32,23,18,83,71,44,30.13,29.98,2,0,2,0.00
2013-3-5,70,55,41,57,44,28,86,66,49,30.02,29.65,11,2,11,0.00
2013-3-6,48,39,32,31,26,20,80,62,47,30.15,29.87,10,2,10,0.00
2013-3-7,60,44,31,34,30,25,81,59,36,30.21,30.11,8,1,8,0.00
2013-3-8,66,47,28,36,27,22,84,51,24,30.27,30.16,5,0,5,0.00
2013-3-9,67,51,33,36,30,23,76,47,29,30.27,30.15,6,1,6,0.00
2013-3-10,74,61,50,42,37,32,58,43,25,30.16,30.01,7,1,8,0.00
2013-3-11,70,58,49,56,51,42,93,78,56,30.03,29.77,10,1,10,0.00
2013-3-12,62,49,39,46,36,32,91,65,37,30.07,29.82,9,2,9,0.00
2013-3-13,59,46,33,37,28,21,87,54,28,30.22,30.06,11,1,11,0.00
2013-3-14,57,43,30,26,20,16,64,43,22,30.33,30.17,8,1,8,0.00
2013-3-15,78,55,32,46,36,24,83,51,30,30.20,29.95,5,1,5,0.00
2013-3-16,82,64,48,48,41,39,74,47,23,29.99,29.85,7,1,7,0.00
2013-3-17,76,62,47,57,48,40,82,61,44,29.98,29.88,7,1,7,0.00
2013-3-18,66,58,48,57,52,45,92,82,70,29.96,29.77,5,1,5,0.00
2013-3-19,65,54,44,48,37,26,94,57,27,30.04,29.84,8,1,8,0.00
2013-3-20,61,50,40,28,24,19,53,38,22,30.09,29.88,7,1,7,0.00
2013-3-21,52,42,31,30,20,11,72,44,22,29.95,29.86,9,1,9,0.00
2013-3-22,56,46,36,36,27,18,60,48,41,30.03,29.92,3,0,3,0.00
2013-3-23,60,50,44,52,45,35,92,82,59,29.98,29.71,4,0,4,0.00
2013-3-24,54,50,44,51,47,32,94,88,64,29.75,29.48,9,1,9,0.00
2013-3-25,48,40,36,32,26,22,67,58,43,30.05,29.68,10,2,10,0.00
2013-3-26,44,38,32,29,25,22,76,61,49,30.24,30.00,11,1,11,0.00
2013-3-27,58,42,28,31,25,20,80,54,31,30.30,30.19,11,1,11,0.00
2013-3-28,65,47,30,36,28,20,82,52,25,30.30,30.18,8,1,8,0.00
2013-3-29,74,54,33,44,34,28,85,53,25,30.28,30.10,6,0,6,0.00
2013-3-30,78,61,49,55,44,35,90,54,35,30.14,29.98,5,0,5,0.00
2013-3-31,74,63,56,60,55,52,91,77,56,29.98,29.82,6,1,7,0.00
2013-4-1,75,64,54,57,48,38,92,62,29,29.99,29.82,10,1,10,0.00
2013-4-2,70,56,45,41,36,29,72,48,29,30.14,29.99,7,1,7,0.00
2013-4-3,66,54,43,45,34,28,87,51,32,30.13,30.04,5,0,5,0.00
2013-4-4,48,44,41,45,41,38,92,89,85,30.11,29.93,8,1,8,0.00
2013-4-5,68,52,41,50,41,35,94,71,33,30.02,29.90,8,1,8,0.00
2013-4-6,76,57,37,53,40,34,91,57,28,30.15,30.02,6,1,6,0.00
2013-4-7,80,62,43,54,46,38,85,59,35,30.16,30.01,7,1,7,0.00
2013-4-8,84,67,52,61,52,47,88,62,37,30.11,30.00,7,1,7,0.00
2013-4-9,88,70,53,64,55,49,90,63,36,30.15,30.03,6,0,6,0.00
2013-4-10,89,72,54,66,57,51,92,62,39,30.08,29.89,6,1,6,0.00
2013-4-11,83,71,58,67,60,52,90,68,54,29.91,29.63,10,1,10,0.00
2013-4-12,72,64,55,64,50,38,92,64,34,29.90,29.61,9,1,9,0.00
2013-4-13,79,62,44,46,41,37,83,50,25,30.00,29.89,9,1,9,0.00
2013-4-14,62,55,46,56,49,42,88,81,62,30.01,29.85,7,0,7,0.00
2013-4-15,79,65,57,62,57,54,91,76,54,30.09,29.88,5,0,5,0.00
2013-4-16,88,71,58,66,61,55,93,73,46,30.20,30.09,6,0,6,0.00
2013-4-17,91,74,62,68,62,58,90,69,42,30.18,30.03,6,0,6,0.00
2013-4-18,86,72,59,64,60,56,92,68,44,30.05,29.89,7,1,7,0.00
2013-4-20,68,58,45,40,35,32,78,43,29,30.18,30.11,8,1,8,0.00
2013-4-21,75,56,38,48,40,34,90,59,31,30.27,30.16,8,1,8,0.00
2013-4-22,76,61,50,49,44,39,74,55,37,30.26,30.09,6,0,6,0.00
2013-4-23,81,63,46,52,45,36,75,54,34,30.18,30.02,5,0,5,0.00
2013-4-24,81,64,52,62,56,47,90,75,49,30.11,30.02,8,1,8,0.00
2013-4-25,77,58,46,54,40,25,88,57,21,30.26,30.11,9,1,9,0.00
2013-4-26,83,61,38,49,42,33,87,54,28,30.31,30.19,6,0,6,0.00
2013-4-27,78,66,59,55,50,47,71,59,41,30.26,30.16,6,1,6,0.00
2013-4-29,66,65,64,60,59,58,83,81,78,29.94,29.93,1,0,1,0.00
2013-4-30,88,69,57,67,60,54,93,73,42,30.05,29.91,5,0,5,0.00
2013-5-1,74,66,62,60,58,54,89,75,58,30.14,30.03,6,0,6,0.00
2013-5-2,75,64,60,63,58,54,89,80,65,30.13,30.06,6,1,6,0.00
2013-5-3,67,63,61,58,57,55,86,79,71,30.07,29.90,9,1,9,0.21
2013-5-4,62,55,52,56,52,49,94,90,73,29.91,29.80,7,1,7,3.17
2013-5-5,76,57,50,60,52,46,95,84,47,29.81,29.69,4,0,4,1.33
2013-5-6,62,52,44,53,48,42,94,86,67,29.85,29.76,4,0,4,0.25
2013-5-7,77,59,49,60,52,47,93,80,49,29.95,29.82,5,0,5,0.00
2013-5-8,83,64,47,62,54,45,93,73,46,30.03,29.92,6,0,6,0.00
2013-5-9,89,70,53,68,57,51,93,68,39,30.08,29.99,6,0,6,0.00
2013-5-10,84,69,56,67,59,52,92,71,47,30.05,29.92,4,0,4,0.00
2013-5-11,84,69,58,68,62,55,91,79,56,29.96,29.84,4,0,5,0.57
2013-5-12,78,62,51,60,48,36,93,64,30,30.06,29.90,8,1,8,0.00
2013-5-13,77,58,41,49,39,36,84,53,26,30.19,30.06,8,1,8,0.00
2013-5-14,88,65,44,59,49,39,88,61,34,30.20,30.06,5,0,5,0.00
2013-5-15,95,72,54,66,56,50,90,61,29,30.13,29.97,7,0,7,0.00
2013-5-16,92,72,60,68,60,55,87,67,39,30.06,29.95,5,0,5,0.00
2013-5-17,90,72,58,67,60,54,89,69,35,30.06,29.98,5,0,5,0.11
2013-5-18,78,70,62,69,65,59,92,85,71,30.05,29.99,4,0,4,0.22
2013-5-19,74,68,63,71,66,61,94,92,86,30.06,29.93,4,0,4,0.73
2013-5-20,94,74,60,75,67,59,95,79,47,30.06,29.96,4,0,4,0.00
2013-5-21,94,79,64,76,68,62,94,73,48,30.00,29.85,5,0,5,0.00
2013-5-22,95,78,65,74,66,62,91,68,40,29.94,29.82,5,0,5,0.00
2013-5-23,92,77,67,69,62,55,90,64,40,29.95,29.87,8,1,8,0.00
2013-5-24,81,69,58,57,52,42,77,55,34,30.17,29.94,8,1,8,0.00
2013-5-25,90,66,47,55,47,42,87,55,25,30.27,30.14,4,0,4,0.00
2013-5-26,94,70,50,64,52,46,89,59,26,30.21,30.09,5,0,5,0.00
2013-5-27,94,74,56,66,58,52,89,61,33,30.19,30.05,6,0,6,0.00
2013-5-28,95,78,64,69,60,51,80,57,31,30.15,30.06,6,1,6,0.00
2013-5-29,92,76,62,68,62,57,87,66,40,30.17,30.08,6,1,6,0.00
2013-5-30,84,84,84,67,67,67,56,56,56,30.15,30.15,0,0,0,0.00
2013-6-5,94,80,69,75,70,66,91,74,51,29.98,29.83,5,0,5,0.00
2013-6-6,86,75,69,74,69,66,93,83,65,29.89,29.71,6,0,6,0.00
2013-6-7,90,74,68,76,68,65,93,83,56,29.83,29.65,4,0,4,0.00
2013-6-8,91,76,67,73,68,65,94,78,51,30.03,29.82,5,0,5,0.00
2013-6-9,88,74,68,76,69,65,93,86,62,30.06,29.95,0,0,0,0.00
2013-6-10,80,73,69,74,70,64,93,88,77,30.00,29.90,0,0,0,0.00
2013-6-11,97,82,70,78,73,68,94,76,47,30.01,29.92,0,0,0,0.00
2013-6-12,100,83,71,80,74,68,93,76,49,30.02,29.93,0,0,0,0.00
2013-6-13,100,84,72,78,73,69,93,71,43,29.94,29.71,0,0,0,0.00
2013-6-15,70,69,69,62,61,61,76,75,74,30.06,30.05,0,0,0,0.15
2013-6-16,97,79,63,76,67,59,91,70,47,30.09,29.96,10,0,10,0.43
2013-6-17,93,76,68,79,70,64,93,84,61,30.06,29.88,3,0,6,1.34
2013-6-18,90,76,68,79,71,66,94,84,67,29.93,29.80,6,0,6,0.17
2013-6-19,85,76,69,74,69,65,91,79,65,30.03,29.86,4,0,4,0.00
2013-6-20,92,77,65,75,67,62,93,73,49,30.13,30.02,6,0,6,0.00
2013-6-21,94,78,64,74,66,61,91,68,45,30.18,30.08,5,0,5,0.00
2013-6-22,96,77,64,72,65,61,91,69,41,30.16,30.03,5,0,5,0.00
2013-6-23,90,77,67,74,68,63,92,76,55,30.15,30.03,4,0,4,0.00
2013-6-24,95,78,69,77,70,66,92,77,48,30.17,30.06,4,0,4,0.00
2013-6-25,96,79,69,77,71,66,92,78,50,30.12,29.99,5,0,5,0.06
2013-6-26,98,82,70,82,73,67,94,76,52,30.05,29.89,6,0,6,0.31
2013-6-27,96,83,73,78,74,70,91,75,53,29.95,29.77,6,0,6,0.54
2013-6-28,99,83,70,84,73,67,95,74,52,29.84,29.62,10,0,10,0.25
2013-6-29,95,80,71,79,72,68,93,77,50,29.70,29.62,5,0,5,0.68
2013-6-30,96,80,67,76,68,64,92,71,43,29.75,29.66,4,0,4,0.00
2013-7-1,92,78,68,75,69,64,88,75,54,29.86,29.73,6,0,6,0.00
2013-7-2,92,80,69,75,70,65,90,72,52,30.02,29.85,4,1,4,0.00
2013-7-3,76,72,68,72,69,66,93,89,79,30.11,30.00,2,0,2,3.53
2013-7-4,77,72,69,75,70,67,95,93,89,30.11,30.01,4,0,4,0.74
2013-7-5,84,74,69,77,71,68,94,90,76,30.14,30.06,4,0,4,0.52
2013-7-6,83,75,70,79,72,68,95,91,80,30.10,30.02,4,0,4,1.03
2013-7-7,82,76,71,76,73,69,95,91,82,30.13,30.05,1,0,1,0.11
2013-7-8,74,73,71,72,70,69,94,93,92,30.11,30.09,0,0,0,0.00
2013-7-9,82,80,79,74,73,72,81,78,75,30.06,30.04,1,0,1,0.00
2013-7-10,95,82,73,82,74,70,92,78,59,30.06,29.91,5,0,5,0.00
2013-7-11,83,77,73,75,72,70,91,85,75,29.93,29.81,2,0,2,0.00
2013-7-12,87,74,70,79,71,68,94,90,76,29.87,29.82,2,0,2,0.00
2013-8-11,96,86,76,78,74,71,86,68,54,30.07,30.00,3,0,3,0.00
2013-8-12,101,80,72,82,73,69,93,83,53,30.06,29.94,4,0,4,1.47
2013-8-13,91,79,71,79,73,68,95,82,64,29.97,29.82,6,0,6,0.00
2013-8-14,91,78,70,78,71,67,91,82,64,29.95,29.84,3,0,3,0.05
2013-8-15,79,72,69,68,65,60,92,80,62,30.01,29.93,6,0,6,0.01
2013-8-16,69,67,64,64,62,60,91,84,73,30.04,29.96,7,0,7,0.09
2013-8-17,67,65,63,65,62,60,94,90,84,30.07,30.01,2,0,2,0.13
2013-8-18,81,70,67,74,68,65,94,91,79,30.11,30.02,1,0,1,0.08
2013-8-19,86,77,72,78,73,70,95,87,75,30.07,29.98,2,0,2,0.01
2013-8-20,83,78,72,76,73,70,93,86,79,30.11,30.02,4,0,4,0.00
2013-8-21,88,76,70,76,72,68,93,86,67,30.16,30.04,4,0,4,0.02
2013-8-22,98,87,70,80,74,68,94,68,47,30.10,29.97,4,0,4,0.00
2013-8-23,88,81,70,74,71,67,91,72,60,29.99,29.92,1,0,1,0.00
2013-8-24,92,79,71,76,70,65,92,76,54,30.17,29.96,5,0,5,0.10
2013-8-25,91,75,65,72,65,59,90,72,43,30.28,30.16,4,0,4,0.00
2013-8-26,91,72,59,72,62,56,93,72,43,30.24,30.08,5,0,5,0.00
2013-8-27,86,70,61,72,64,58,90,80,60,30.11,29.97,1,0,1,0.00
2013-8-28,98,77,66,77,68,63,90,76,47,30.00,29.92,4,0,4,0.00
2013-8-29,99,82,70,80,72,67,91,73,48,29.96,29.86,7,0,7,0.00
2013-8-30,90,80,73,78,74,70,92,81,67,29.96,29.86,3,0,3,0.00
2013-8-31,77,76,74,72,72,71,89,88,86,29.90,29.88,0,0,1,0.00
2013-9-9,74,73,72,67,67,66,82,80,78,30.12,30.10,0,0,0,0.00
2013-9-10,96,79,68,79,69,65,91,73,48,30.22,30.11,4,0,4,0.00
2013-9-11,97,78,66,79,67,63,93,71,41,30.24,30.11,5,0,5,0.00
2013-9-12,98,79,66,77,68,62,91,71,45,30.12,29.92,5,0,5,0.00
2013-9-13,95,78,65,74,65,54,88,67,44,29.95,29.83,5,0,5,0.00
2013-9-14,90,69,54,64,56,50,90,67,39,30.07,29.91,4,0,4,0.00
2013-9-15,89,73,60,73,65,56,90,76,56,30.16,30.07,4,0,4,0.00
2013-9-16,98,77,67,77,66,59,92,71,38,30.15,30.06,5,0,5,0.00
2013-9-17,85,73,64,69,63,60,88,72,56,30.23,30.11,4,0,4,0.00
2013-9-18,83,71,64,66,61,59,85,71,55,30.24,30.13,5,0,5,0.00
2013-9-19,91,72,59,71,62,56,92,73,43,30.19,30.08,4,0,4,0.00
2013-9-20,94,75,62,75,65,59,92,72,44,30.09,29.91,3,0,3,0.00
2013-9-21,73,69,65,70,65,63,93,88,77,29.94,29.74,0,0,0,1.69
2013-9-22,64,63,63,62,61,61,93,93,93,29.78,29.78,0,0,0,0.00
2013-9-28,84,71,58,63,58,54,86,63,45,30.21,30.11,5,0,5,0.00
2013-9-29,85,66,53,66,56,50,92,73,42,30.15,30.02,4,0,4,0.01
2013-9-30,86,66,54,67,57,51,92,74,47,30.09,29.99,4,0,4,0.00
2013-10-1,90,69,56,70,60,53,93,75,46,30.16,30.05,3,0,4,0.00
2013-10-2,91,71,57,73,62,54,93,74,46,30.16,30.06,4,0,4,0.01
2013-10-3,92,73,63,72,63,59,92,72,45,30.15,30.06,4,0,4,0.00
2013-10-4,94,72,60,73,63,57,93,76,44,30.16,30.08,3,0,3,0.00
2013-10-5,94,73,61,76,63,58,93,74,42,30.13,30.01,4,0,4,0.00
2013-10-6,90,72,61,73,64,58,93,79,50,30.03,29.85,5,0,5,2.46
2013-10-7,79,66,57,66,58,51,93,79,55,29.96,29.83,6,1,6,0.70
2013-10-8,79,65,55,62,57,50,87,74,56,30.13,29.96,4,0,4,0.00
2013-10-9,83,65,54,60,54,49,85,69,41,30.19,30.09,4,0,4,0.00
2013-10-10,87,66,53,66,57,49,92,75,45,30.14,30.01,5,0,5,0.00
2013-10-11,85,66,53,68,55,51,93,72,40,30.06,29.97,8,0,8,0.01
2013-10-12,90,67,53,69,57,50,93,73,40,30.09,29.99,5,0,5,0.00
2013-10-13,91,69,55,71,60,52,93,74,46,30.18,30.08,4,0,4,0.00
2013-10-14,88,69,61,70,62,58,91,78,51,30.20,30.11,6,0,6,0.00
2013-10-15,72,66,62,62,60,57,86,80,67,30.15,30.04,4,0,4,0.00
2013-10-16,85,67,55,68,59,53,93,78,53,30.06,29.96,3,0,3,0.00
2013-10-17,72,67,62,69,64,60,93,90,85,29.97,29.88,1,0,1,0.50
2013-10-18,78,62,51,63,55,49,94,80,53,30.02,29.93,4,0,4,0.00
2013-10-19,65,59,54,60,55,52,92,88,83,29.97,29.92,2,0,2,0.07
2013-10-20,77,56,42,57,46,40,94,74,40,30.05,29.97,4,0,4,0.01
2013-10-21,81,58,42,62,50,39,94,77,47,30.12,29.99,3,0,3,0.00
2013-10-22,72,62,54,60,56,49,92,82,59,30.02,29.84,3,0,3,0.01
2013-10-23,70,54,42,54,43,36,91,70,40,30.08,29.84,11,1,11,0.00
2013-10-24,69,50,36,50,40,33,90,69,40,30.19,30.06,4,0,4,0.00
2013-10-25,64,47,35,41,33,28,81,61,33,30.36,30.19,6,1,7,0.00
2013-10-26,70,46,31,46,35,27,90,68,38,30.32,30.14,4,0,4,0.00
2013-10-27,77,55,39,57,47,36,90,76,48,30.15,30.08,3,0,3,0.00
2013-10-28,67,60,54,61,56,51,92,85,73,30.25,30.10,1,0,1,0.02
2013-10-29,83,64,51,67,56,48,94,78,48,30.30,30.21,4,0,4,0.00
2013-10-30,87,65,53,67,57,50,93,77,46,30.29,30.14,3,0,3,0.00
2013-10-31,76,67,57,65,59,53,90,78,66,30.16,29.86,5,1,5,0.00
2013-11-1,80,67,54,69,60,48,92,77,58,29.86,29.71,8,1,8,0.42
2013-11-2,78,57,44,60,45,39,93,68,41,30.05,29.82,6,0,6,0.00
2013-11-3,74,52,40,53,40,37,91,68,35,30.28,30.05,4,0,4,0.00
2013-11-4,73,52,40,53,40,36,89,67,38,30.41,30.27,6,0,6,0.00
2013-11-5,70,54,44,45,40,36,74,60,38,30.43,30.29,4,0,4,0.00
2013-11-6,76,61,52,61,53,45,87,76,57,30.31,30.13,4,0,4,0.01
2013-11-8,70,51,40,46,32,30,77,51,32,30.25,30.20,0,0,0,0.00
2013-11-9,63,43,36,44,35,32,89,77,42,30.33,30.19,0,0,0,0.00
2013-11-10,76,57,46,50,43,38,85,62,37,30.27,30.16,0,0,0,0.00
2013-11-11,76,60,37,51,38,32,90,46,25,30.29,30.15,0,0,0,0.00
2013-11-12,71,46,32,53,34,18,90,64,34,30.42,30.12,0,0,0,0.00
2013-11-13,58,38,24,33,20,16,76,51,24,30.54,30.42,0,0,0,0.00
2013-11-14,65,41,24,41,23,19,89,55,23,30.46,30.27,0,0,0,0.00
2013-11-15,53,46,35,46,38,25,90,74,59,30.29,30.13,0,0,0,0.00
2013-11-16,66,56,46,59,52,44,92,87,77,30.20,30.10,0,0,0,0.00
2013-11-17,68,63,59,66,60,55,94,90,87,30.14,29.91,0,0,0,0.00
2013-11-18,83,65,52,67,50,35,94,62,33,30.05,29.89,0,0,0,0.00
2013-11-19,70,53,39,41,34,30,69,52,30,30.14,30.02,0,0,0,0.00
2013-11-20,64,51,40,39,33,28,67,52,36,30.31,30.14,5,0,5,0.18
2013-11-21,62,54,49,48,43,35,80,66,53,30.37,30.28,3,0,3,0.00
2013-11-22,66,58,52,58,53,47,91,83,74,30.32,30.16,2,0,2,0.27
2013-11-23,60,53,40,58,46,28,92,77,58,30.24,30.12,9,1,9,0.00
2013-11-24,53,38,29,28,21,16,69,51,31,30.44,30.23,8,1,8,0.00
2013-11-25,49,39,28,25,21,16,68,48,32,30.43,30.16,5,0,5,0.00
2013-11-26,49,41,35,46,37,24,92,87,49,30.17,29.64,5,0,5,1.33
2013-11-27,44,35,28,41,28,18,91,75,60,30.24,29.66,10,2,10,0.12
2013-11-28,54,35,20,33,22,15,83,62,38,30.43,30.24,4,0,4,0.00
2013-11-29,67,41,24,40,26,20,88,61,29,30.48,30.38,3,0,3,0.00
2013-11-30,59,43,32,35,28,25,78,58,36,30.51,30.30,4,0,4,0.00
2013-12-1,63,48,38,44,35,27,79,62,48,30.31,30.01,2,0,2,0.00
2013-12-2,54,49,44,50,45,38,92,87,79,30.01,29.81,2,0,2,0.21
2013-12-3,59,54,50,57,52,47,94,92,90,29.89,29.81,2,0,2,0.29
2013-12-4,77,64,56,69,60,54,95,87,71,30.02,29.88,5,0,5,0.01
2013-12-5,74,68,65,70,66,62,94,92,83,30.07,29.96,4,0,4,0.72
2013-12-6,77,70,57,69,66,54,94,86,75,30.07,29.96,7,1,7,0.17
2013-12-7,57,46,42,54,42,38,91,86,78,30.27,30.06,7,1,7,0.03
2013-12-8,48,46,42,46,44,40,94,93,90,30.26,30.15,5,0,5,0.38
2013-12-9,50,45,42,48,44,40,95,94,93,30.16,30.00,4,0,4,0.64
2013-12-10,50,44,31,48,40,27,94,84,64,30.32,29.93,10,1,10,0.15
2013-12-11,62,41,26,46,31,23,94,71,41,30.40,30.29,3,0,3,0.00
2013-12-12,54,38,30,36,24,18,80,59,33,30.43,30.32,7,1,7,0.00
2013-12-13,62,42,25,37,25,18,82,53,25,30.36,30.12,3,0,3,0.00
2013-12-14,54,49,44,51,44,31,93,84,59,30.14,29.80,2,0,3,0.77
2013-12-15,51,40,31,49,35,27,93,82,73,30.18,29.82,7,1,7,0.01
2013-12-16,61,41,28,42,31,25,92,71,45,30.24,30.14,5,0,5,0.00
2013-12-17,70,46,29,48,34,26,91,65,40,30.21,30.06,4,0,4,0.01
2013-12-18,60,43,31,36,25,20,75,52,27,30.32,30.16,9,1,9,0.00
2013-12-19,72,46,27,45,29,22,88,57,27,30.29,30.16,3,0,3,0.00
2013-12-20,64,48,35,51,41,29,86,75,64,30.20,30.09,5,0,5,0.00
2013-12-21,72,63,51,65,58,48,92,85,79,30.08,29.91,7,1,8,0.01
2013-12-22,71,62,58,65,59,55,94,90,81,30.06,29.87,6,1,6,2.66
2013-12-23,58,49,36,56,45,31,95,87,78,30.25,30.02,8,1,8,0.01
2013-12-24,50,35,26,34,26,19,85,68,46,30.38,30.24,8,1,8,0.00
2013-12-25,54,36,24,32,23,19,83,62,34,30.43,30.28,4,0,4,0.00
2013-12-26,62,42,30,37,28,23,81,59,33,30.34,30.23,5,0,5,0.00
2013-12-27,56,39,26,38,28,22,89,68,44,30.42,30.29,4,0,4,0.00
2013-12-28,37,32,30,33,28,25,88,85,80,30.36,30.29,0,0,0,0.00
2013-12-29,51,45,40,47,42,37,93,89,82,30.03,29.83,5,0,5,0.21
2013-12-30,52,44,36,46,40,34,95,86,76,30.19,30.02,4,0,4,0.00
2013-12-31,49,41,33,38,32,27,87,73,49,30.35,30.18,5,1,5,0.01
2014-1-1,50,37,32,38,31,28,89,80,54,30.32,30.10,3,0,3,0.00
2014-1-2,52,43,26,50,38,16,92,83,63,30.11,29.75,10,1,10,0.15